Change the Weather History Date:

Sunday, July 7, 2013

  Actual Average Record
Temperature  
Mean Temperature 68 °F 63 °F  
Max Temperature 85 °F 80 °F 92 °F (1966)
Min Temperature 50 °F 47 °F 32 °F (1952)
Degree Days  
Heating Degree Days 0 3  
Month to date heating degree days 6 23  
Since 1 June heating degree days 109 264  
Since 1 July heating degree days 6 23  
Cooling Degree Days 3 1  
Month to date cooling degree days 12 7  
Year to date cooling degree days 48 14  
Since 1 June cooling degree days 48 14  
Growing Degree Days 18 (Base 50)    
Moisture  
Dew Point 43 °F    
Average Humidity 46    
Maximum Humidity 77    
Minimum Humidity 15    
Precipitation  
Precipitation T in 0.04 in 0.30 in (2011)
Month to date precipitation 0.12 0.27  
Year to date precipitation 3.53 5.76  
Sea Level Pressure  
Sea Level Pressure 29.85 in    
Wind  
Wind Speed 9 mph (WSW)    
Max Wind Speed 20 mph    
Max Gust Speed 29 mph    
Visibility 10 miles    
Events      
T = Trace of Precipitation, MM = Missing Value Source: NWS Daily Summary

Daily Weather History Graph

Daily Weather History Graph

Search for Another Location

Airport or City:

Trip Planner

Search our weather history database for the weather conditions in past years. The results will help you decide how hot, cold, wet, or windy it might be!

Date:

Astronomy

Jul. 07, 2013 Rise Set
Actual Time 5:36 AM MDT 8:38 PM MDT
Civil Twilight 5:03 AM MDT 9:11 PM MDT
Nautical Twilight 4:21 AM MDT 9:53 PM MDT
Astronomical Twilight 3:31 AM MDT 10:43 PM MDT
Moon 5:15 AM MDT (7/7) 8:02 PM MDT (7/7)
Length of Visible Light 16h 07m
Length of Day
15h 01m
Waning Crescent, 0% of the Moon is Illuminated
Jul 7
Waning Crescent
Jul 8
New
Jul 15
First Quarter
Jul 22
Full
Jul 29
Last Quarter

Hourly Weather History & Observations

Time (MDT) Temp. Dew Point Humidity Pressure Visibility Wind Dir Wind Speed Gust Speed Precip Events Conditions
12:53 AM 64.9 °F 46.9 °F 52% 29.77 in 10.0 mi South 13.8 mph - N/A   Overcast
1:15 AM 64.4 °F 44.6 °F 49% 30.17 in 10.0 mi WSW 17.3 mph - 0.00 in   Scattered Clouds
1:53 AM 63.0 °F 45.0 °F 52% 29.79 in 10.0 mi South 12.7 mph - 0.00 in   Overcast
2:53 AM 57.9 °F 46.9 °F 67% 29.83 in 10.0 mi WNW 4.6 mph - 0.00 in   Partly Cloudy
3:53 AM 54.0 °F 46.0 °F 75% 29.83 in 10.0 mi Calm Calm - N/A   Clear
4:53 AM 53.1 °F 46.0 °F 77% 29.85 in 10.0 mi SW 5.8 mph - N/A   Clear
5:53 AM 53.1 °F 45.0 °F 74% 29.86 in 10.0 mi SW 3.5 mph - N/A   Clear
6:53 AM 57.0 °F 46.9 °F 69% 29.86 in 10.0 mi Calm Calm - N/A   Partly Cloudy
7:53 AM 64.9 °F 45.0 °F 48% 29.85 in 10.0 mi West 5.8 mph - N/A   Scattered Clouds
8:53 AM 66.9 °F 46.9 °F 49% 29.87 in 10.0 mi South 5.8 mph - N/A   Clear
9:53 AM 75.0 °F 42.1 °F 31% 29.86 in 10.0 mi WSW 15.0 mph 20.7 mph N/A   Clear
10:53 AM 75.9 °F 43.0 °F 31% 29.86 in 10.0 mi NNW 8.1 mph 17.3 mph N/A   Partly Cloudy
11:53 AM 78.1 °F 42.1 °F 28% 29.86 in 10.0 mi Variable 4.6 mph - N/A   Clear
12:53 PM 78.1 °F 41.0 °F 27% 29.85 in 10.0 mi SSW 6.9 mph - N/A   Mostly Cloudy
1:53 PM 80.1 °F 39.9 °F 24% 29.84 in 10.0 mi NW 10.4 mph - N/A   Mostly Cloudy
2:53 PM 80.1 °F 37.9 °F 22% 29.85 in 10.0 mi NW 10.4 mph 17.3 mph N/A   Partly Cloudy
3:53 PM 82.0 °F 36.0 °F 19% 29.83 in 10.0 mi North 9.2 mph - N/A   Scattered Clouds
4:53 PM 84.0 °F 33.1 °F 16% 29.82 in 10.0 mi North 10.4 mph 17.3 mph N/A   Clear
5:53 PM 82.9 °F 30.9 °F 15% 29.81 in 10.0 mi North 8.1 mph - N/A   Clear
6:53 PM 82.0 °F 30.9 °F 16% 29.80 in 10.0 mi North 9.2 mph - N/A   Clear
7:53 PM 75.0 °F 46.9 °F 37% 29.81 in 10.0 mi SE 20.7 mph 25.3 mph N/A   Clear
8:53 PM 69.1 °F 48.0 °F 47% 29.83 in 10.0 mi SSE 12.7 mph - N/A   Clear
9:53 PM 66.0 °F 46.9 °F 50% 29.84 in 10.0 mi SSE 11.5 mph - N/A   Partly Cloudy
10:53 PM 64.9 °F 48.9 °F 56% 29.84 in 10.0 mi SSE 13.8 mph - N/A   Scattered Clouds
11:53 PM 62.1 °F 52.0 °F 70% 29.87 in 10.0 mi South 17.3 mph - N/A   Clear